• en France
  • Liste des pays
  • À 7 jours
  • Température de l'eau
  • Carte satellitaire
  • Carte météo
  • Widgets météo
  • user-avatar
    Se connecter

    Météo par heure à Ibagué

    Ce jour, 13 Novembre, Mardi

    Heure Température Précipitation Vent Pression Humidité
    00:00 +21°C° 0.2 mm 1 m/s 648 mmHg 69%
    01:00 +20°C° 0.2 mm 1 m/s 648 mmHg 69%
    02:00 +20°C° 0.1 mm 1 m/s 648 mmHg 69%
    03:00 +20°C° 0.1 mm 1 m/s 648 mmHg 69%
    04:00 +20°C° 0.1 mm 1 m/s 647 mmHg 69%
    05:00 +20°C° 0.1 mm 1 m/s 648 mmHg 67%
    06:00 +19°C° 0.1 mm 0 m/s 649 mmHg 65%
    07:00 +20°C° 0.1 mm 0 m/s 649 mmHg 64%
    08:00 +23°C° 0.1 mm 1 m/s 650 mmHg 60%
    09:00 +25°C° 0.1 mm 1 m/s 650 mmHg 57%
    10:00 +26°C° 0.1 mm 1 m/s 651 mmHg 54%
    11:00 +26°C° 0.2 mm 1 m/s 650 mmHg 55%
    12:00 +27°C° 0.2 mm 1 m/s 649 mmHg 56%
    13:00 +27°C° 0.2 mm 2 m/s 649 mmHg 57%
    14:00 +27°C° 0.3 mm 1 m/s 648 mmHg 57%
    15:00 +27°C° 0.3 mm 1 m/s 648 mmHg 58%
    16:00 +27°C° 0.3 mm 1 m/s 647 mmHg 59%
    17:00 +25°C° 0.1 mm 1 m/s 648 mmHg 64%
    18:00 +23°C° 0.1 mm 1 m/s 648 mmHg 68%
    19:00 +22°C° 0.1 mm 1 m/s 648 mmHg 73%
    20:00 +22°C° 0.1 mm 1 m/s 648 mmHg 73%
    21:00 +21°C° 0.1 mm 1 m/s 649 mmHg 74%
    22:00 +21°C° 0.1 mm 1 m/s 649 mmHg 74%
    23:00 +21°C° 0.4 mm 1 m/s 649 mmHg 75%

    Demain, 14 Novembre, Mercredi

    Heure Température Précipitation Vent Pression Humidité
    00:00 +20°C° 0.4 mm 1 m/s 648 mmHg 76%
    01:00 +20°C° 0.4 mm 1 m/s 648 mmHg 77%
    02:00 +20°C° 0.1 mm 1 m/s 648 mmHg 78%
    03:00 +20°C° 0.1 mm 1 m/s 648 mmHg 79%
    04:00 +19°C° 0.1 mm 1 m/s 647 mmHg 79%
    05:00 +20°C° 0 mm 1 m/s 648 mmHg 78%
    06:00 +18°C° 0 mm 0 m/s 649 mmHg 76%
    07:00 +19°C° 0 mm 0 m/s 649 mmHg 74%
    08:00 +23°C° 0 mm 1 m/s 650 mmHg 65%
    09:00 +25°C° 0 mm 1 m/s 650 mmHg 57%
    10:00 +28°C° 0 mm 1 m/s 651 mmHg 48%
    11:00 +28°C° 0 mm 1 m/s 650 mmHg 47%
    12:00 +29°C° 0 mm 1 m/s 650 mmHg 45%
    13:00 +29°C° 0 mm 2 m/s 649 mmHg 44%
    14:00 +29°C° 0 mm 1 m/s 649 mmHg 46%
    15:00 +29°C° 0 mm 1 m/s 648 mmHg 47%
    16:00 +28°C° 0 mm 1 m/s 647 mmHg 48%
    17:00 +26°C° 0 mm 1 m/s 647 mmHg 55%
    18:00 +24°C° 0 mm 1 m/s 648 mmHg 62%
    19:00 +22°C° 0 mm 1 m/s 648 mmHg 69%
    20:00 +22°C° 0 mm 1 m/s 648 mmHg 70%
    21:00 +21°C° 0 mm 1 m/s 648 mmHg 70%
    22:00 +21°C° 0 mm 1 m/s 649 mmHg 71%
    23:00 +21°C° 0 mm 1 m/s 649 mmHg 71%

    Après-demain, 15 Novembre, Jeudi

    Heure Température Précipitation Vent Pression Humidité
    00:00 +20°C° 0 mm 1 m/s 648 mmHg 72%
    01:00 +20°C° 0 mm 1 m/s 648 mmHg 73%
    02:00 +20°C° 0 mm 1 m/s 648 mmHg 73%
    03:00 +20°C° 0 mm 1 m/s 647 mmHg 74%
    04:00 +19°C° 0 mm 1 m/s 647 mmHg 74%
    05:00 +20°C° 0 mm 1 m/s 648 mmHg 72%
    06:00 +21°C° 0 mm 1 m/s 648 mmHg 71%
    07:00 +22°C° 0 mm 1 m/s 649 mmHg 69%
    08:00 +23°C° 0 mm 1 m/s 649 mmHg 62%
    09:00 +25°C° 0 mm 1 m/s 650 mmHg 55%
    10:00 +27°C° 0 mm 1 m/s 651 mmHg 49%
    11:00 +28°C° 0 mm 1 m/s 650 mmHg 48%
    12:00 +28°C° 0 mm 1 m/s 649 mmHg 46%
    13:00 +29°C° 0 mm 1 m/s 649 mmHg 45%
    14:00 +29°C° 0 mm 1 m/s 648 mmHg 47%
    15:00 +28°C° 0 mm 1 m/s 648 mmHg 48%
    16:00 +28°C° 0 mm 1 m/s 647 mmHg 50%
    17:00 +26°C° 0 mm 1 m/s 647 mmHg 57%
    18:00 +24°C° 0 mm 1 m/s 647 mmHg 64%
    19:00 +22°C° 0 mm 1 m/s 647 mmHg 71%
    20:00 +21°C° 0 mm 1 m/s 648 mmHg 72%
    21:00 +21°C° 0 mm 1 m/s 648 mmHg 72%
    22:00 +21°C° 0 mm 1 m/s 649 mmHg 72%
    23:00 +21°C° 0 mm 1 m/s 649 mmHg 73%

    16 Novembre, Vendredi

    Heure Température Précipitation Vent Pression Humidité
    00:00 +20°C° 0 mm 1 m/s 648 mmHg 73%
    01:00 +20°C° 0 mm 1 m/s 648 mmHg 73%
    02:00 +20°C° 0 mm 1 m/s 648 mmHg 73%
    03:00 +20°C° 0 mm 1 m/s 647 mmHg 73%
    04:00 +19°C° 0 mm 1 m/s 647 mmHg 73%
    05:00 +20°C° 0 mm 1 m/s 648 mmHg 70%
    06:00 +19°C° 0 mm 0 m/s 648 mmHg 68%
    07:00 +19°C° 0 mm 0 m/s 649 mmHg 66%
    08:00 +23°C° 0 mm 1 m/s 650 mmHg 59%
    09:00 +25°C° 0 mm 1 m/s 650 mmHg 53%
    10:00 +27°C° 0 mm 1 m/s 651 mmHg 46%
    11:00 +28°C° 0 mm 1 m/s 650 mmHg 44%
    12:00 +29°C° 0 mm 1 m/s 650 mmHg 43%
    13:00 +29°C° 0 mm 1 m/s 649 mmHg 41%
    14:00 +29°C° 0 mm 1 m/s 648 mmHg 44%
    15:00 +28°C° 0 mm 1 m/s 648 mmHg 46%
    16:00 +28°C° 0 mm 1 m/s 647 mmHg 48%
    17:00 +26°C° 0 mm 1 m/s 647 mmHg 54%
    18:00 +24°C° 0 mm 1 m/s 647 mmHg 61%
    19:00 +22°C° 0 mm 1 m/s 648 mmHg 67%
    20:00 +22°C° 0 mm 1 m/s 648 mmHg 67%
    21:00 +21°C° 0 mm 1 m/s 648 mmHg 67%
    22:00 +21°C° 0 mm 1 m/s 649 mmHg 66%
    23:00 +21°C° 0 mm 1 m/s 648 mmHg 67%

    17 Novembre, Samedi

    Heure Température Précipitation Vent Pression Humidité
    00:00 +21°C° 0 mm 1 m/s 648 mmHg 68%
    01:00 +20°C° 0 mm 1 m/s 648 mmHg 69%
    02:00 +20°C° 0 mm 1 m/s 648 mmHg 69%
    03:00 +20°C° 0 mm 1 m/s 648 mmHg 70%
    04:00 +20°C° 0 mm 1 m/s 647 mmHg 70%
    05:00 +20°C° 0 mm 1 m/s 648 mmHg 69%
    06:00 +21°C° 0 mm 1 m/s 649 mmHg 68%
    07:00 +21°C° 0 mm 1 m/s 649 mmHg 66%
    08:00 +23°C° 0.1 mm 1 m/s 650 mmHg 62%
    09:00 +24°C° 0.1 mm 1 m/s 650 mmHg 57%
    10:00 +26°C° 0.1 mm 1 m/s 650 mmHg 52%
    11:00 +26°C° 0.1 mm 1 m/s 650 mmHg 51%
    12:00 +27°C° 0.1 mm 1 m/s 649 mmHg 49%
    13:00 +28°C° 0.1 mm 1 m/s 648 mmHg 47%
    14:00 +28°C° 0.1 mm 1 m/s 648 mmHg 49%
    15:00 +27°C° 0.1 mm 1 m/s 647 mmHg 51%
    16:00 +27°C° 0.1 mm 1 m/s 647 mmHg 53%
    17:00 +25°C° 0 mm 1 m/s 647 mmHg 58%
    18:00 +24°C° 0 mm 1 m/s 647 mmHg 63%
    19:00 +22°C° 0 mm 1 m/s 647 mmHg 68%
    20:00 +22°C° 0 mm 1 m/s 648 mmHg 68%
    21:00 +21°C° 0 mm 1 m/s 648 mmHg 68%
    22:00 +21°C° 0 mm 1 m/s 648 mmHg 68%
    23:00 +21°C° 0 mm 1 m/s 648 mmHg 69%

    18 Novembre, Dimanche

    Heure Température Précipitation Vent Pression Humidité
    00:00 +21°C° 0 mm 1 m/s 648 mmHg 70%
    01:00 +20°C° 0 mm 1 m/s 647 mmHg 70%
    02:00 +20°C° 0.1 mm 1 m/s 647 mmHg 71%
    03:00 +20°C° 0.1 mm 1 m/s 647 mmHg 72%
    04:00 +20°C° 0.1 mm 1 m/s 647 mmHg 73%
    05:00 +20°C° 0.1 mm 1 m/s 648 mmHg 73%
    06:00 +21°C° 0.1 mm 1 m/s 648 mmHg 72%
    07:00 +21°C° 0.1 mm 1 m/s 649 mmHg 72%
    08:00 +22°C° 0.2 mm 1 m/s 649 mmHg 67%
    09:00 +24°C° 0.2 mm 1 m/s 649 mmHg 62%
    10:00 +25°C° 0.2 mm 1 m/s 650 mmHg 58%
    11:00 +26°C° 0.1 mm 1 m/s 649 mmHg 55%
    12:00 +27°C° 0.1 mm 1 m/s 649 mmHg 52%
    13:00 +28°C° 0.1 mm 1 m/s 648 mmHg 50%
    14:00 +28°C° 0.1 mm 1 m/s 648 mmHg 50%
    15:00 +28°C° 0.1 mm 1 m/s 647 mmHg 51%
    16:00 +28°C° 0.1 mm 1 m/s 647 mmHg 52%
    17:00 +26°C° 0 mm 1 m/s 647 mmHg 57%
    18:00 +24°C° 0 mm 1 m/s 647 mmHg 63%
    19:00 +22°C° 0 mm 1 m/s 647 mmHg 68%
    20:00 +22°C° 0.1 mm 1 m/s 648 mmHg 69%
    21:00 +22°C° 0.1 mm 1 m/s 648 mmHg 69%
    22:00 +21°C° 0.1 mm 1 m/s 648 mmHg 70%
    23:00 +21°C° 0.5 mm 1 m/s 648 mmHg 71%
    Voir plus